Regional Weather Roundup
Issued by NWS Austin/San Antonio, TX

Home | Current Version | Previous Version | Graphics & Text | Print | Product List | Glossary On
Versions: 1 2 3 4 5 6 7 8 9 10 11 12 13 14 15 16 17 18 19 20 21 22 23 24 25 26 27 28 29 30 31 32 33 34 35 36 37 38 39 40 41 42 43 44 45 46 47 48 49 50
698
ASUS44 KEWX 121901
RWREWX
SOUTH TEXAS REGIONAL WEATHER ROUNDUP
NATIONAL WEATHER SERVICE AUSTIN/SAN ANTONIO TX
100 PM CST TUE DEC 12 2017

NOTE: "FAIR" INDICATED FEW OR NO CLOUDS BELOW 12,000 FEET WITH NO
SIGNIFICANT WEATHER AND/OR OBSTRUCTIONS TO VISIBILITY.

* - THESE STATIONS ARE NOT NWS OR FAA STATIONS...AND ARE NOT SUBJECT
    TO NWS AND FAA QUALITY CONTROL.

TXZ171-172-183>190-122000-
TEXAS HILL COUNTRY AND EDWARDS PLATEAU

CITY           SKY/WX    TMP DP  RH WIND       PRES   REMARKS
JUNCTION       SUNNY     57  26  30 N9        30.40F
*LLANO         SUNNY     59  30  33 N10G16    30.42F
BURNET         SUNNY     59  28  30 N15       30.39F
*HORSESHOE BAY SUNNY     58  30  34 NW12      30.38F
*KERRVILLE     SUNNY     59  20  22 N10G22    30.37F
*FREDERICKSBRG SUNNY     57  24  28 N12G20    30.38F
*ROCKSPRINGS   NOT AVBL
*BOERNE STAGE  SUNNY     57  25  28 N10G17    30.38F
*CASTROVILLE   SUNNY     65  25  22 N13       30.39F
HONDO          SUNNY     69  22  16 N13       30.37F
*UVALDE        SUNNY     65  24  20 NW7       30.39F
DEL RIO        SUNNY     61  31  32 W13       30.41F
LAUGHLIN AFB   SUNNY     62  27  26 NW13      30.40F
CARRIZO SPRGS  SUNNY     64  28  25 N6        30.38F
*EAGLE PASS    CLEAR     64  25  22 VRB7G16   30.40F
$$

TXZ173-191>194-202-209-217>225-228-122000-
CENTRAL AND SOUTH CENTRAL TEXAS

CITY           SKY/WX    TMP DP  RH WIND       PRES   REMARKS
GEORGETOWN     SUNNY     60  30  32 N12G18    30.37F
AUSTIN/BERGSTM SUNNY     62  30  29 N15G26    30.35F
AUSTIN/MABRY   SUNNY     62  28  27 VRB7G20   30.36F
*AUSTIN/EXEC   SUNNY     57  28  33 N15       30.37F
*LAGO VISTA    SUNNY     59  29  31 N9        30.37F
SAN MARCOS     SUNNY     63  32  31 N15       30.36F
NEW BRAUNFELS  SUNNY     64  29  26 N17G23    30.34F
RANDOLPH AFB   SUNNY     63  28  27 N10G20    30.34F
PT SAN ANTONIO SUNNY     65  26  23 N8        30.34F
SAN ANTONIO    MOSUNNY   63  27  25 N9        30.36F
STINSON FIELD  SUNNY     66  28  24 NE9       30.34F
*LA GRANGE     SUNNY     61  32  33 N12       30.31F
*GIDDINGS      SUNNY     58  29  32 N8G17     30.34F
*GONZALES      SUNNY     64  31  30 N10G18    30.34F
$$

TXZ163>164-176>182-195>201-210>213-226-227-235-122000-
SOUTHEAST TEXAS

CITY           SKY/WX    TMP DP  RH WIND       PRES   REMARKS
COLLEGE STN    SUNNY     60  28  29 N13       30.33F
*BRYAN         SUNNY     57  28  32 NW12G17   30.36F
*CALDWELL      SUNNY     58  30  34 N16       30.35F
*CROCKETT        N/A     57  27  30 N10       30.34F
*BRENHAM       SUNNY     61  30  31 N12G20    30.32F
HUNTSVILLE     SUNNY     58  28  32 NW15      30.30F
CONROE         SUNNY     61  29  29 NW15      30.29F
HOUSTON BUSH   MOSUNNY   63  30  28 N12       30.27F
HOUSTON HOBBY  SUNNY     63  32  31 N10G20    30.26F
*HOUSTON SW AP SUNNY     62  32  32 N9        30.28F
PEARLAND       SUNNY     62  31  31 NW12      30.28F
HOUSTON HOOKS  SUNNY     62  29  28 N10       30.29F
ELLINGTON FLD  MOSUNNY   61  32  33 N12       30.29F
SUGAR LAND     SUNNY     63  31  30 N13G20    30.28F
*HOUSTON EXEC  NOT AVBL
*CLEVELAND MUN SUNNY     59  26  27 N9G18     30.28F
*WHARTON       SUNNY     61  30  30 NW13G18   30.31F
*COLUMBUS      FAIR     N/A N/A N/A N14       30.32F
*EAGLE LAKE    CLEAR     63  32  31 N13       30.30F
$$

TXZ214>216-236>238-122000-
THE UPPER TEXAS COAST

CITY           SKY/WX    TMP DP  RH WIND       PRES   REMARKS
*ORANGE        SUNNY     62  34  34 N10G16    30.24F
PORT ARTHUR    SUNNY     63  34  33 N13       30.23F
GALVESTON      SUNNY     62  37  39 N15       30.26F
ANGLETON       SUNNY     65  32  29 N14       30.27F
*BAY CITY      SUNNY     64  32  30 N13G20    30.28F
PALACIOS       SUNNY     65  35  33 N15G23    30.29F
$$

TXZ229>234-239>247-122000-
TEXAS COASTAL BEND AND RIO GRANDE PLAINS

CITY           SKY/WX    TMP DP  RH WIND       PRES   REMARKS
VICTORIA       SUNNY     66  29  24 N13       30.31F
*BEEVILLE      SUNNY     66  30  26 N13       30.33F
ROCKPORT       CLOUDY    66  33  29 N12       30.30F
*PORT ARANSAS  NOT AVBL
*PORT LAVACA   SUNNY     64  33  31 N14G20    30.31F
*INGLESIDE     NOT AVBL
CORPUS CHRISTI CLOUDY    66  36  32 N13       30.31F
CORPUS NAS     PTSUNNY   65  40  39 NE8       30.31F
*ROBSTOWN      CLOUDY    64  34  32 N13       30.33F
ALICE          MOSUNNY   68  30  24 N14       30.32F
KINGSVILLE NAS PTSUNNY   67  39  35 NE13      30.32F
COTULLA        SUNNY     67  25  20 N7        30.37F
*FAITH RANCH   SUNNY     66  30  26 N9        30.38F
LAREDO           N/A    N/A N/A N/A MISG        N/A
$$

TXZ248>255-122000-
DEEP SOUTH TEXAS

CITY           SKY/WX    TMP DP  RH WIND       PRES   REMARKS
BROWNSVILLE    SUNNY     75  41  29 NW10      30.28F
PORT ISABEL    SUNNY     70  48  45 N12       30.27F
*SOUTH PADRE   NOT AVBL
HARLINGEN      SUNNY     73  41  31 N14       30.27F
*HEBBRONVILLE  SUNNY     65  26  22 E12G17    30.35F
MCALLEN        SUNNY     73  38  27 N12       30.29F
*WESLACO       SUNNY     71  39  30 N9G18     30.30F
FALFURRIAS     NOT AVBL
EDINBURG       NOT AVBL
*ZAPATA        SUNNY     70  28  20 N9        30.35F
$$

TXZ213>215-236>238-242>244-246-247-251-254-255-122000-
CMAN STATIONS

STATION/POSITION TIME  TEMP    WIND        PRES    WAVE
                       AIR SEA DIR/SP/G            HT/PER
                 (UTC) (F)     (DEG/KT/KT) (MB)    (FT/S)
SABINE PASS      1830   58 58  360/ 11/ 16 1025.5
SEA RIM ST PARK  1800   59     360/ 12/ 16 1025.1
NORTH JETTY/GLS  1830      56  340/ 14/ 17 1024.3
EAGLE POINT      1830   57 56   20/  9/ 11 1025.1
MORGANS POINT    1830   59 58  360/ 10/ 13 1024.9
PORT O`CONNOR    1830   56 57  350/ 12/ 14 1026.1
MALAQUITE BEACH  1830   60 62  340/ 15/ 18 1026.3
BAFFIN BAY       1830   58 56  360/ 19/ 21 1027.1
PORT ISABEL      1830   67 56  320/  9/ 12 1025.3
$$




USA.gov is the U.S. government's official web portal to all federal, state and local government web resources and services.